Location: Arleux
(50.3632°N, 2.8721°E)
Time: 16:55:37
(UTC+00:00)

Cosmos 1844 Rocket - Pass Details

Date: 15 December 2019
Orbit: 825 x 844 km, 71.0° (Epoch: 21 January)

Event Time Altitude Azimuth Distance (km) Brightness Sun altitude
Rises 05:47:31 0° 208° (SSW) 3,357 5.7 -17.1°
Reaches altitude 10° 05:49:56 10° 209° (SSW) 2,425 5.0 -16.7°
Maximum altitude 05:55:30 87° 298° (WNW) 834 2.6 -15.8°
Drops below altitude 10° 06:01:06 10° 29° (NNE) 2,437 5.2 -15.0°
Sets 06:03:33 0° 30° (NNE) 3,375 6.0 -14.6°
